BVX82B LFPG-LIRF

Flight info

Callsign BVX82B
Flight time 1h 33m
Altitude 41000
Route OKASI DCT OKEKO DCT MOU DCT MADIV DCT MOKIP DCT TUFTA DCT KOGAS DCT MEDAM DCT NITAM DCT MOGBO DCT ELB/N0470F400 DCT ELKAP
Aircraft A333/H-SDE3GHIJ2J3J5M1RVWXY/LB2D1

Departure

Time 2026-05-08 13:13
Airport Charles de Gaulle International Airport (LFPG)

Arrival

Time 2026-05-08 14:46
Airport Rome–Fiumicino Leonardo da Vinci International Airport (LIRF)
Time Latitude Longitude Altitude Speed Heading
2026-05-08 12:06 49.00179 2.56038 358 ft 0 kts 10°
2026-05-08 12:55 49.00176 2.56037 358 ft 3 kts 10°
2026-05-08 12:56 49.00150 2.56030 358 ft 4 kts 10°
2026-05-08 12:56 49.00123 2.56023 361 ft 4 kts 10°
2026-05-08 12:56 49.00099 2.56017 364 ft 4 kts
2026-05-08 12:56 49.00078 2.56024 360 ft 4 kts 295°
2026-05-08 12:57 49.00078 2.56059 361 ft 4 kts 253°
2026-05-08 12:57 49.00085 2.56098 363 ft 3 kts 263°
2026-05-08 12:57 49.00085 2.56103 366 ft 0 kts 265°
2026-05-08 13:02 49.00085 2.56099 366 ft 3 kts 265°
2026-05-08 13:03 49.00082 2.56037 363 ft 7 kts 265°
2026-05-08 13:03 49.00077 2.55937 362 ft 11 kts 265°
2026-05-08 13:03 49.00073 2.55811 364 ft 13 kts 269°
2026-05-08 13:03 49.00064 2.55668 361 ft 14 kts 253°
2026-05-08 13:04 49.00013 2.55526 365 ft 16 kts 240°
2026-05-08 13:04 48.99981 2.55356 360 ft 18 kts 263°
2026-05-08 13:04 48.99970 2.55161 361 ft 19 kts 265°
2026-05-08 13:04 48.99962 2.55057 362 ft 8 kts 254°
2026-05-08 13:05 48.99928 2.55005 366 ft 7 kts 204°
2026-05-08 13:05 48.99891 2.55008 359 ft 6 kts 159°
2026-05-08 13:05 48.99846 2.55035 365 ft 8 kts 160°
2026-05-08 13:05 48.99787 2.55061 364 ft 10 kts 166°
2026-05-08 13:06 48.99743 2.55093 366 ft 7 kts 137°
2026-05-08 13:06 48.99726 2.55167 364 ft 8 kts 94°
2026-05-08 13:06 48.99725 2.55264 363 ft 10 kts 95°
2026-05-08 13:06 48.99703 2.55365 365 ft 5 kts 118°
2026-05-08 13:07 48.99695 2.55385 366 ft 0 kts 121°
2026-05-08 13:09 48.99694 2.55388 357 ft 2 kts 121°
2026-05-08 13:09 48.99688 2.55404 365 ft 4 kts 122°
2026-05-08 13:09 48.99651 2.55468 360 ft 8 kts 136°
2026-05-08 13:10 48.99640 2.55484 365 ft 2 kts 137°
2026-05-08 13:10 48.99606 2.55534 362 ft 7 kts 132°
2026-05-08 13:10 48.99589 2.55630 361 ft 7 kts 88°
2026-05-08 13:10 48.99589 2.55633 361 ft 0 kts 88°
2026-05-08 13:11 48.99596 2.55787 361 ft 41 kts 85°
2026-05-08 13:12 48.99638 2.56572 364 ft 106 kts 85°
2026-05-08 13:12 48.99714 2.57995 366 ft 162 kts 85°
2026-05-08 13:12 48.99793 2.59906 669 ft 193 kts 85°
2026-05-08 13:12 48.99813 2.60645 841 ft 199 kts 85°
2026-05-08 13:13 48.99826 2.61222 1002 ft 203 kts 86°
2026-05-08 13:13 48.99921 2.63385 1873 ft 203 kts 84°
2026-05-08 13:13 49.00087 2.65542 2766 ft 210 kts 83°
2026-05-08 13:13 49.00246 2.67828 3183 ft 226 kts 84°
2026-05-08 13:14 49.00382 2.70329 3469 ft 247 kts 85°
2026-05-08 13:14 49.00515 2.72992 3993 ft 256 kts 85°
2026-05-08 13:14 49.00653 2.75722 4610 ft 262 kts 86°
2026-05-08 13:14 49.00646 2.78513 5233 ft 266 kts 95°
2026-05-08 13:15 49.00403 2.81310 5931 ft 268 kts 99°
2026-05-08 13:15 49.00106 2.84119 6630 ft 270 kts 99°
2026-05-08 13:15 48.99799 2.86953 7268 ft 274 kts 99°
2026-05-08 13:15 48.99489 2.89842 7895 ft 278 kts 100°
2026-05-08 13:16 48.99163 2.92770 8537 ft 283 kts 103°
2026-05-08 13:16 48.98500 2.95594 9187 ft 285 kts 120°
2026-05-08 13:16 48.97245 2.97917 9863 ft 286 kts 143°
2026-05-08 13:16 48.95460 2.99216 10350 ft 291 kts 170°
2026-05-08 13:17 48.93413 2.99091 10588 ft 304 kts 195°
2026-05-08 13:17 48.91378 2.98034 10970 ft 314 kts 202°
2026-05-08 13:17 48.89328 2.96813 11522 ft 318 kts 202°
2026-05-08 13:17 48.87259 2.95590 12115 ft 321 kts 202°
2026-05-08 13:18 48.85165 2.94375 12742 ft 323 kts 201°
2026-05-08 13:18 48.83054 2.93168 13346 ft 325 kts 201°
2026-05-08 13:18 48.80922 2.91959 13965 ft 328 kts 201°
2026-05-08 13:18 48.78780 2.90750 14488 ft 330 kts 201°
2026-05-08 13:19 48.76619 2.89535 15011 ft 333 kts 201°
2026-05-08 13:19 48.74435 2.88310 15541 ft 335 kts 201°
2026-05-08 13:19 48.72237 2.87079 16062 ft 338 kts 201°
2026-05-08 13:19 48.70025 2.85842 16592 ft 340 kts 201°
2026-05-08 13:20 48.67792 2.84595 17111 ft 343 kts 201°
2026-05-08 13:20 48.65549 2.83342 17615 ft 345 kts 201°
2026-05-08 13:20 48.63314 2.82096 18116 ft 348 kts 201°
2026-05-08 13:20 48.61036 2.80827 18578 ft 350 kts 202°
2026-05-08 13:21 48.58749 2.79554 19047 ft 352 kts 202°
2026-05-08 13:21 48.56439 2.78269 19483 ft 354 kts 202°
2026-05-08 13:21 48.54123 2.76982 19903 ft 356 kts 202°
2026-05-08 13:21 48.51789 2.75687 20322 ft 358 kts 202°
2026-05-08 13:22 48.49445 2.74387 20722 ft 361 kts 202°
2026-05-08 13:22 48.47090 2.73083 21131 ft 363 kts 202°
2026-05-08 13:22 48.44702 2.71761 21539 ft 365 kts 202°
2026-05-08 13:22 48.42312 2.70440 21948 ft 367 kts 202°
2026-05-08 13:23 48.39911 2.69113 22330 ft 369 kts 202°
2026-05-08 13:23 48.37487 2.67775 22691 ft 373 kts 203°
2026-05-08 13:23 48.35041 2.66426 23077 ft 375 kts 203°
2026-05-08 13:23 48.32578 2.65102 23463 ft 378 kts 200°
2026-05-08 13:24 48.29995 2.64233 23793 ft 385 kts 189°
2026-05-08 13:24 48.27291 2.64268 24054 ft 395 kts 175°
2026-05-08 13:24 48.24606 2.65322 24306 ft 404 kts 162°
2026-05-08 13:24 48.22039 2.67119 24595 ft 410 kts 156°
2026-05-08 13:25 48.19496 2.69103 24864 ft 414 kts 156°
2026-05-08 13:25 48.16931 2.71117 25005 ft 420 kts 156°
2026-05-08 13:25 48.14319 2.73149 25208 ft 425 kts 156°
2026-05-08 13:25 48.11682 2.75186 25505 ft 427 kts 156°
2026-05-08 13:26 48.09034 2.77218 25772 ft 430 kts 156°
2026-05-08 13:26 48.06326 2.79156 25969 ft 434 kts 159°
2026-05-08 13:26 48.03548 2.80983 26105 ft 440 kts 160°
2026-05-08 13:26 48.00707 2.82770 26201 ft 446 kts 161°
2026-05-08 13:27 47.97822 2.84558 26306 ft 452 kts 161°
2026-05-08 13:27 47.94934 2.86347 26385 ft 459 kts 161°
2026-05-08 13:27 47.91969 2.88194 26479 ft 465 kts 161°
2026-05-08 13:27 47.88970 2.90075 26584 ft 471 kts 160°
2026-05-08 13:28 47.85932 2.91990 26682 ft 477 kts 160°
2026-05-08 13:28 47.82859 2.93930 26802 ft 482 kts 160°
2026-05-08 13:28 47.79757 2.95891 27000 ft 485 kts 160°
2026-05-08 13:28 47.76656 2.97851 27356 ft 485 kts 160°
2026-05-08 13:29 47.73539 2.99818 27517 ft 488 kts 160°
2026-05-08 13:29 47.70401 3.01793 27688 ft 492 kts 160°
2026-05-08 13:29 47.67238 3.03780 27915 ft 494 kts 160°
2026-05-08 13:29 47.64068 3.05768 28146 ft 496 kts 160°
2026-05-08 13:30 47.60877 3.07767 28371 ft 499 kts 160°
2026-05-08 13:30 47.57677 3.09768 28593 ft 501 kts 160°
2026-05-08 13:30 47.54460 3.11777 28799 ft 503 kts 160°
2026-05-08 13:30 47.51223 3.13796 29046 ft 505 kts 160°
2026-05-08 13:31 47.47980 3.15817 29287 ft 507 kts 160°
2026-05-08 13:31 47.44722 3.17842 29510 ft 509 kts 160°
2026-05-08 13:31 47.41452 3.19872 29725 ft 511 kts 160°
2026-05-08 13:31 47.38170 3.21907 29956 ft 513 kts 160°
2026-05-08 13:32 47.34868 3.23952 30144 ft 515 kts 160°
2026-05-08 13:32 47.31603 3.25971 30362 ft 515 kts 160°
2026-05-08 13:32 47.28305 3.28010 30752 ft 512 kts 160°
2026-05-08 13:32 47.25025 3.30035 31072 ft 511 kts 161°
2026-05-08 13:33 47.21744 3.32057 31360 ft 511 kts 161°
2026-05-08 13:33 47.18464 3.34074 31673 ft 511 kts 161°
2026-05-08 13:33 47.15183 3.36089 32048 ft 510 kts 161°
2026-05-08 13:33 47.11910 3.38097 32434 ft 509 kts 161°
2026-05-08 13:34 47.08647 3.40097 32898 ft 507 kts 161°
2026-05-08 13:34 47.05397 3.42086 33355 ft 505 kts 161°
2026-05-08 13:34 47.02154 3.44068 33764 ft 505 kts 161°
2026-05-08 13:34 46.98918 3.46042 34161 ft 504 kts 161°
2026-05-08 13:35 46.95686 3.48011 34540 ft 502 kts 161°
2026-05-08 13:35 46.92467 3.49971 34945 ft 500 kts 161°
2026-05-08 13:35 46.89265 3.51918 35329 ft 497 kts 161°
2026-05-08 13:35 46.86083 3.53850 35753 ft 495 kts 161°
2026-05-08 13:36 46.82908 3.55775 36088 ft 493 kts 161°
2026-05-08 13:36 46.79751 3.57765 36418 ft 494 kts 157°
2026-05-08 13:36 46.76756 3.60251 36736 ft 498 kts 149°
2026-05-08 13:36 46.74028 3.63376 37041 ft 501 kts 139°
2026-05-08 13:37 46.71678 3.67138 37357 ft 503 kts 128°
2026-05-08 13:37 46.69805 3.71445 37685 ft 505 kts 118°
2026-05-08 13:37 46.68476 3.76171 37989 ft 505 kts 108°
2026-05-08 13:37 46.67502 3.81084 38288 ft 505 kts 105°
2026-05-08 13:38 46.66641 3.86034 38584 ft 504 kts 104°
2026-05-08 13:38 46.65828 3.90997 38823 ft 503 kts 103°
2026-05-08 13:38 46.65026 3.95951 39022 ft 503 kts 104°
2026-05-08 13:38 46.64212 4.00897 39220 ft 503 kts 104°
2026-05-08 13:39 46.63380 4.05848 39415 ft 503 kts 104°
2026-05-08 13:39 46.62537 4.10778 39664 ft 501 kts 104°
2026-05-08 13:39 46.61685 4.15690 39875 ft 501 kts 105°
2026-05-08 13:39 46.60827 4.20601 40055 ft 501 kts 105°
2026-05-08 13:40 46.59964 4.25511 40219 ft 501 kts 105°
2026-05-08 13:40 46.59100 4.30416 40398 ft 501 kts 105°
2026-05-08 13:40 46.58232 4.35329 40574 ft 501 kts 105°
2026-05-08 13:40 46.57365 4.40229 40762 ft 501 kts 105°
2026-05-08 13:41 46.56495 4.45134 40927 ft 501 kts 105°
2026-05-08 13:41 46.55622 4.50042 40983 ft 504 kts 105°
2026-05-08 13:41 46.53863 4.59898 40991 ft 503 kts 105°
2026-05-08 13:42 46.52101 4.69724 40991 ft 503 kts 105°
2026-05-08 13:42 46.50330 4.79541 40991 ft 503 kts 105°
2026-05-08 13:43 46.48549 4.89358 40991 ft 503 kts 106°
2026-05-08 13:43 46.47366 4.95850 40989 ft 502 kts 106°
2026-05-08 13:44 46.45420 5.06485 40981 ft 502 kts 106°
2026-05-08 13:44 46.43618 5.16280 40987 ft 503 kts 106°
2026-05-08 13:45 46.42464 5.22539 40994 ft 503 kts 106°
2026-05-08 13:45 46.40650 5.32327 40995 ft 503 kts 106°
2026-05-08 13:46 46.38274 5.41798 41004 ft 499 kts 121°
2026-05-08 13:46 46.34282 5.49938 41009 ft 495 kts 131°
2026-05-08 13:47 46.29834 5.57556 41001 ft 495 kts 133°
2026-05-08 13:47 46.25310 5.65073 41003 ft 496 kts 134°
2026-05-08 13:48 46.20800 5.72598 40996 ft 496 kts 133°
2026-05-08 13:48 46.16295 5.80154 41003 ft 496 kts 133°
2026-05-08 13:49 46.11798 5.87699 40992 ft 496 kts 133°
2026-05-08 13:49 46.07324 5.95188 41001 ft 496 kts 133°
2026-05-08 13:50 46.02810 6.02716 40999 ft 497 kts 134°
2026-05-08 13:50 45.98289 6.10236 40989 ft 497 kts 134°
2026-05-08 13:51 45.93764 6.17741 40995 ft 497 kts 134°
2026-05-08 13:51 45.89226 6.25248 40995 ft 497 kts 134°
2026-05-08 13:52 45.84693 6.32730 40983 ft 496 kts 134°
2026-05-08 13:52 45.79893 6.39791 41001 ft 492 kts 145°
2026-05-08 13:53 45.74447 6.45696 41011 ft 491 kts 148°
2026-05-08 13:53 45.68877 6.51354 41010 ft 491 kts 148°
2026-05-08 13:54 45.63296 6.56961 41016 ft 490 kts 148°
2026-05-08 13:54 45.57722 6.62578 41005 ft 491 kts 148°
2026-05-08 13:55 45.52143 6.68206 41025 ft 491 kts 148°
2026-05-08 13:56 45.43761 6.76649 41039 ft 492 kts 148°
2026-05-08 13:56 45.38165 6.82270 41046 ft 492 kts 148°
2026-05-08 13:57 45.32571 6.87873 41061 ft 492 kts 148°
2026-05-08 13:57 45.27026 6.93552 41067 ft 494 kts 143°
2026-05-08 13:58 45.21944 7.00136 41076 ft 495 kts 139°
2026-05-08 13:58 45.16994 7.06928 41077 ft 495 kts 139°
2026-05-08 13:59 45.12109 7.13717 41062 ft 495 kts 136°
2026-05-08 13:59 45.07814 7.21381 41080 ft 498 kts 128°
2026-05-08 14:00 45.03790 7.29384 41080 ft 500 kts 127°
2026-05-08 14:00 44.99812 7.37439 41090 ft 500 kts 128°
2026-05-08 14:01 44.95294 7.44804 41091 ft 495 kts 137°
2026-05-08 14:01 44.91245 7.50597 41086 ft 494 kts 138°
2026-05-08 14:02 44.85553 7.58497 41079 ft 494 kts 139°
2026-05-08 14:02 44.81447 7.64177 41076 ft 494 kts 139°
2026-05-08 14:03 44.76577 7.70924 41075 ft 494 kts 139°
2026-05-08 14:03 44.71679 7.77712 41064 ft 494 kts 139°
2026-05-08 14:04 44.66778 7.84490 41078 ft 494 kts 139°
2026-05-08 14:04 44.61875 7.91252 41074 ft 494 kts 139°
2026-05-08 14:05 44.56960 7.98013 41067 ft 494 kts 139°
2026-05-08 14:05 44.52051 8.04749 41067 ft 494 kts 139°
2026-05-08 14:06 44.47134 8.11479 41061 ft 494 kts 139°
2026-05-08 14:06 44.42214 8.18196 41064 ft 494 kts 139°
2026-05-08 14:07 44.37291 8.24900 41050 ft 494 kts 139°
2026-05-08 14:07 44.32369 8.31589 41051 ft 494 kts 139°
2026-05-08 14:08 44.27444 8.38262 41031 ft 494 kts 139°
2026-05-08 14:08 44.22512 8.44930 41026 ft 493 kts 139°
2026-05-08 14:09 44.17611 8.51540 41017 ft 493 kts 139°
2026-05-08 14:09 44.12643 8.58223 41013 ft 493 kts 139°
2026-05-08 14:10 44.07736 8.64807 40996 ft 493 kts 139°
2026-05-08 14:10 44.02786 8.71435 41002 ft 494 kts 139°
2026-05-08 14:11 43.97836 8.78045 41001 ft 493 kts 140°
2026-05-08 14:11 43.92891 8.84634 41001 ft 493 kts 140°
2026-05-08 14:12 43.87944 8.91208 41002 ft 493 kts 140°
2026-05-08 14:12 43.82952 8.97825 41002 ft 494 kts 140°
2026-05-08 14:13 43.77982 9.04397 41001 ft 494 kts 140°
2026-05-08 14:13 43.73008 9.10960 40995 ft 494 kts 140°
2026-05-08 14:14 43.68062 9.17470 40999 ft 494 kts 140°
2026-05-08 14:14 43.63087 9.24003 40993 ft 494 kts 140°
2026-05-08 14:15 43.58097 9.30538 40999 ft 495 kts 140°
2026-05-08 14:15 43.53102 9.37064 40999 ft 495 kts 140°
2026-05-08 14:16 43.48122 9.43556 40996 ft 495 kts 140°
2026-05-08 14:16 43.43117 9.50066 40972 ft 495 kts 140°
2026-05-08 14:17 43.38100 9.56573 40995 ft 497 kts 140°
2026-05-08 14:17 43.33069 9.63085 41008 ft 497 kts 140°
2026-05-08 14:18 43.28033 9.69587 40990 ft 497 kts 141°
2026-05-08 14:18 43.22994 9.76079 40991 ft 497 kts 141°
2026-05-08 14:19 43.17945 9.82567 40990 ft 498 kts 141°
2026-05-08 14:19 43.12882 9.89056 40990 ft 498 kts 141°
2026-05-08 14:20 43.07857 9.95485 40948 ft 498 kts 141°
2026-05-08 14:20 43.05322 9.98721 40434 ft 499 kts 141°
2026-05-08 14:20 43.02780 10.01961 39775 ft 502 kts 141°
2026-05-08 14:20 43.00211 10.05230 39065 ft 506 kts 141°
2026-05-08 14:21 42.97625 10.08516 38258 ft 510 kts 141°
2026-05-08 14:21 42.95022 10.11823 37521 ft 511 kts 141°
2026-05-08 14:21 42.92417 10.15131 36796 ft 512 kts 141°
2026-05-08 14:21 42.89801 10.18448 36041 ft 514 kts 142°
2026-05-08 14:22 42.87168 10.21781 35204 ft 519 kts 142°
2026-05-08 14:22 42.84511 10.25137 34301 ft 524 kts 142°
2026-05-08 14:22 42.81818 10.28535 33270 ft 531 kts 142°
2026-05-08 14:22 42.79104 10.31976 32268 ft 536 kts 140°
2026-05-08 14:23 42.76623 10.35820 31296 ft 546 kts 130°
2026-05-08 14:23 42.74653 10.40253 30739 ft 544 kts 117°
2026-05-08 14:23 42.73365 10.44975 30597 ft 522 kts 106°
2026-05-08 14:23 42.72750 10.49723 30490 ft 498 kts 96°
2026-05-08 14:24 42.72498 10.54318 30370 ft 478 kts 93°
2026-05-08 14:24 42.72317 10.58782 30042 ft 472 kts 92°
2026-05-08 14:24 42.71947 10.63219 29329 ft 474 kts 105°
2026-05-08 14:24 42.70768 10.67364 28754 ft 468 kts 121°
2026-05-08 14:25 42.69121 10.71161 28209 ft 465 kts 125°
2026-05-08 14:25 42.67398 10.74869 27632 ft 464 kts 126°
2026-05-08 14:25 42.65685 10.78541 27339 ft 456 kts 126°
2026-05-08 14:25 42.64003 10.82181 26834 ft 454 kts 124°
2026-05-08 14:26 42.62585 10.86021 26108 ft 460 kts 114°
2026-05-08 14:26 42.61467 10.90120 25381 ft 464 kts 111°
2026-05-08 14:26 42.60444 10.94208 25104 ft 449 kts 110°
2026-05-08 14:26 42.59478 10.98141 24764 ft 431 kts 110°
2026-05-08 14:27 42.58546 11.01947 24250 ft 420 kts 110°
2026-05-08 14:27 42.57634 11.05669 23737 ft 412 kts 110°
2026-05-08 14:27 42.56739 11.09326 23079 ft 405 kts 110°
2026-05-08 14:27 42.55858 11.12917 22365 ft 399 kts 110°
2026-05-08 14:28 42.54988 11.16458 21651 ft 393 kts 110°
2026-05-08 14:28 42.54129 11.19952 20938 ft 388 kts 109°
2026-05-08 14:28 42.53281 11.23397 20223 ft 382 kts 109°
2026-05-08 14:28 42.52445 11.26790 19542 ft 377 kts 109°
2026-05-08 14:29 42.51619 11.30136 18873 ft 371 kts 109°
2026-05-08 14:29 42.50808 11.33419 18239 ft 364 kts 109°
2026-05-08 14:29 42.50010 11.36643 17513 ft 357 kts 109°
2026-05-08 14:29 42.49225 11.39810 16779 ft 352 kts 109°
2026-05-08 14:30 42.48452 11.42926 16055 ft 347 kts 109°
2026-05-08 14:30 42.47688 11.46000 15352 ft 341 kts 109°
2026-05-08 14:30 42.46946 11.48982 14676 ft 336 kts 109°
2026-05-08 14:30 42.46206 11.51954 14001 ft 331 kts 110°
2026-05-08 14:31 42.45476 11.54880 13298 ft 326 kts 109°
2026-05-08 14:31 42.44768 11.57717 12937 ft 309 kts 109°
2026-05-08 14:31 42.44097 11.60401 12664 ft 293 kts 109°
2026-05-08 14:32 42.42845 11.65402 12063 ft 267 kts 109°
2026-05-08 14:32 42.42261 11.67731 11835 ft 256 kts 109°
2026-05-08 14:32 42.41697 11.69974 11688 ft 249 kts 109°
2026-05-08 14:32 42.41140 11.72189 11641 ft 249 kts 109°
2026-05-08 14:33 42.40583 11.74401 11583 ft 248 kts 109°
2026-05-08 14:33 42.40026 11.76614 11534 ft 248 kts 109°
2026-05-08 14:33 42.39468 11.78825 11469 ft 248 kts 109°
2026-05-08 14:33 42.38911 11.81033 11360 ft 247 kts 109°
2026-05-08 14:34 42.38356 11.83230 11248 ft 247 kts 109°
2026-05-08 14:34 42.37803 11.85421 11136 ft 246 kts 109°
2026-05-08 14:34 42.37247 11.87616 11021 ft 246 kts 109°
2026-05-08 14:34 42.36694 11.89801 10879 ft 246 kts 109°
2026-05-08 14:35 42.36089 11.91970 10556 ft 247 kts 117°
2026-05-08 14:35 42.35042 11.93781 10280 ft 246 kts 142°
2026-05-08 14:35 42.33529 11.94838 9998 ft 246 kts 159°
2026-05-08 14:35 42.31906 11.95559 9694 ft 246 kts 162°
2026-05-08 14:36 42.30270 11.96228 9402 ft 245 kts 162°
2026-05-08 14:36 42.28648 11.96896 9119 ft 244 kts 162°
2026-05-08 14:36 42.27028 11.97570 8871 ft 244 kts 162°
2026-05-08 14:36 42.25387 11.98260 8495 ft 247 kts 162°
2026-05-08 14:37 42.23752 11.98952 8170 ft 248 kts 162°
2026-05-08 14:37 42.22122 11.99642 7988 ft 243 kts 161°
2026-05-08 14:37 42.20659 12.00715 7742 ft 239 kts 141°
2026-05-08 14:37 42.19368 12.02117 7501 ft 238 kts 140°
2026-05-08 14:38 42.18096 12.03534 7321 ft 237 kts 139°
2026-05-08 14:38 42.16830 12.04948 7097 ft 235 kts 139°
2026-05-08 14:38 42.15577 12.06341 6921 ft 232 kts 139°
2026-05-08 14:38 42.14339 12.07728 6677 ft 232 kts 139°
2026-05-08 14:39 42.13086 12.09131 6312 ft 236 kts 139°
2026-05-08 14:39 42.11808 12.10549 5917 ft 241 kts 139°
2026-05-08 14:39 42.10509 12.11981 5533 ft 240 kts 139°
2026-05-08 14:39 42.09230 12.13396 5244 ft 236 kts 139°
2026-05-08 14:40 42.07987 12.14778 4991 ft 227 kts 139°
2026-05-08 14:40 42.06766 12.16045 4713 ft 216 kts 142°
2026-05-08 14:40 42.05529 12.17095 4450 ft 205 kts 149°
2026-05-08 14:40 42.04245 12.17856 4199 ft 200 kts 158°
2026-05-08 14:41 42.02928 12.18443 3946 ft 199 kts 160°
2026-05-08 14:41 42.01627 12.18999 3480 ft 193 kts 161°
2026-05-08 14:41 42.00368 12.19536 3243 ft 187 kts 161°
2026-05-08 14:41 41.99134 12.20059 2994 ft 185 kts 161°
2026-05-08 14:42 41.97921 12.20570 2752 ft 180 kts 161°
2026-05-08 14:42 41.96775 12.21051 2516 ft 169 kts 161°
2026-05-08 14:42 41.95693 12.21506 2310 ft 159 kts 161°
2026-05-08 14:42 41.94657 12.21941 2101 ft 154 kts 161°
2026-05-08 14:43 41.93638 12.22369 1878 ft 153 kts 161°
2026-05-08 14:43 41.92644 12.22785 1681 ft 145 kts 161°
2026-05-08 14:43 41.91709 12.23177 1493 ft 139 kts 161°
2026-05-08 14:43 41.90788 12.23563 1315 ft 138 kts 161°
2026-05-08 14:44 41.89873 12.23946 1130 ft 137 kts 161°
2026-05-08 14:44 41.88961 12.24328 944 ft 137 kts 161°
2026-05-08 14:44 41.88058 12.24707 773 ft 135 kts 161°
2026-05-08 14:44 41.87168 12.25079 596 ft 133 kts 162°
2026-05-08 14:45 41.86292 12.25447 406 ft 131 kts 162°
2026-05-08 14:45 41.85428 12.25807 241 ft 130 kts 162°
2026-05-08 14:45 41.84570 12.26166 86 ft 129 kts 162°
2026-05-08 14:45 41.83746 12.26507 24 ft 112 kts 162°
2026-05-08 14:46 41.83188 12.26740 14 ft 55 kts 162°
2026-05-08 14:46 41.82922 12.26845 16 ft 36 kts 168°
2026-05-08 14:46 41.82730 12.26867 15 ft 20 kts 184°
2026-05-08 14:46 41.82618 12.26842 14 ft 14 kts 192°
2026-05-08 14:47 41.82520 12.26813 14 ft 15 kts 192°
2026-05-08 14:47 41.82416 12.26784 14 ft 7 kts 188°
2026-05-08 14:47 41.82413 12.26784 14 ft 0 kts 188°
2026-05-08 14:48 41.82409 12.26783 14 ft 2 kts 188°
2026-05-08 14:48 41.82383 12.26780 15 ft 8 kts 182°
2026-05-08 14:48 41.82311 12.26789 15 ft 12 kts 169°
2026-05-08 14:48 41.82225 12.26820 14 ft 14 kts 163°
2026-05-08 14:49 41.82125 12.26859 14 ft 16 kts 163°
2026-05-08 14:49 41.82053 12.26891 14 ft 17 kts 161°
2026-05-08 14:49 41.81934 12.26941 15 ft 19 kts 162°
2026-05-08 14:49 41.81806 12.26995 15 ft 20 kts 162°
2026-05-08 14:50 41.81669 12.27053 15 ft 20 kts 162°
2026-05-08 14:50 41.81529 12.27111 15 ft 22 kts 162°
2026-05-08 14:50 41.81398 12.27165 16 ft 17 kts 163°
2026-05-08 14:50 41.81279 12.27215 16 ft 17 kts 162°
2026-05-08 14:51 41.81164 12.27264 16 ft 18 kts 162°
2026-05-08 14:51 41.81038 12.27317 16 ft 20 kts 162°
2026-05-08 14:51 41.80940 12.27347 16 ft 10 kts 176°
2026-05-08 14:51 41.80874 12.27341 16 ft 11 kts 188°
2026-05-08 14:52 41.80794 12.27324 16 ft 13 kts 190°
2026-05-08 14:52 41.80643 12.27174 16 ft 16 kts 247°
2026-05-08 14:52 41.80601 12.27026 19 ft 18 kts 250°
2026-05-08 14:53 41.80556 12.26862 17 ft 20 kts 250°
2026-05-08 14:53 41.80508 12.26687 19 ft 20 kts 250°
2026-05-08 14:53 41.80459 12.26509 21 ft 21 kts 249°
2026-05-08 14:53 41.80406 12.26316 18 ft 23 kts 250°
2026-05-08 14:54 41.80349 12.26108 18 ft 23 kts 249°
2026-05-08 14:54 41.80290 12.25897 18 ft 25 kts 250°
2026-05-08 14:54 41.80242 12.25722 18 ft 20 kts 250°
2026-05-08 14:54 41.80200 12.25569 18 ft 14 kts 250°
2026-05-08 14:55 41.80163 12.25435 18 ft 16 kts 249°
2026-05-08 14:55 41.80125 12.25299 18 ft 14 kts 250°
2026-05-08 14:55 41.80097 12.25163 18 ft 16 kts 264°
2026-05-08 14:55 41.80108 12.25004 18 ft 18 kts 276°
2026-05-08 14:56 41.80097 12.24845 18 ft 15 kts 249°
2026-05-08 14:56 41.80028 12.24802 18 ft 10 kts 167°
2026-05-08 14:56 41.79954 12.24835 18 ft 12 kts 160°
2026-05-08 14:56 41.79885 12.24869 18 ft 3 kts 160°
2026-05-08 14:57 41.79860 12.24882 18 ft 4 kts 160°
2026-05-08 14:57 41.79832 12.24882 18 ft 3 kts 204°
2026-05-08 14:57 41.79823 12.24862 18 ft 3 kts 241°
2026-05-08 14:57 41.79815 12.24832 18 ft 2 kts 249°
2026-05-08 14:58 41.79811 12.24819 18 ft 0 kts 250°
2026-05-08 14:58 41.79810 12.24815 18 ft 0 kts 250°